Location: ?????????
(54.7630°N, 39.4991°E)
Time: 06:13:23
(UTC+00:00)

NOSS 2-3 (C) - Pass Details

Date: 14 April 2026
Orbit: 452 x 1721 km, 63.3° (Epoch: 12 May)

Event Time Altitude Azimuth Distance (km) Brightness Sun altitude
Rises 17:06:25 0° 309° (NW) 2,877 9.0 -6.5°
Reaches altitude 10° 17:08:25 10° 306° (NW) 2,093 8.0 -6.8°
Maximum altitude 17:13:06 64° 226° (SW) 902 4.5 -7.4°
Drops below altitude 10° 17:19:34 10° 146° (SSE) 2,864 6.4 -8.2°
Enters shadow 17:20:38 - 145° (SE) 3,262 6.7 -8.3°
